• In Czech Republic
  • List of Countries
  • For 7 days
  • Water Temperature
  • Satellite Maps
  • Weather Map
  • Weather Widgets
  • user-avatar
    Login

    Hourly Weather Calgary

    Today, 15 December, Friday

    Time Temperature Precipitation Wind Pressure Humidity
    00:00 +2°C° 0 mm 3 mps 664 mmHg 41%
    01:00 +2°C° 0 mm 3 mps 664 mmHg 40%
    02:00 +2°C° 0 mm 3 mps 663 mmHg 42%
    03:00 +2°C° 0 mm 3 mps 663 mmHg 43%
    04:00 +4°C° 0 mm 8 mps 662 mmHg 35%
    05:00 +3°C° 0.1 mm 6 mps 662 mmHg 42%
    06:00 +2°C° 0.1 mm 5 mps 661 mmHg 48%
    07:00 +2°C° 0.1 mm 3 mps 661 mmHg 55%
    08:00 +2°C° 0.3 mm 3 mps 661 mmHg 58%
    09:00 +2°C° 0.3 mm 3 mps 662 mmHg 61%
    10:00 +2°C° 0.3 mm 3 mps 662 mmHg 63%
    11:00 +3°C° 0.3 mm 2 mps 662 mmHg 68%
    12:00 +2°C° 0.3 mm 2 mps 662 mmHg 72%
    13:00 +2°C° 0.3 mm 2 mps 662 mmHg 76%
    14:00 +2°C° 0.1 mm 2 mps 662 mmHg 78%
    15:00 +1°C° 0.1 mm 2 mps 662 mmHg 79%
    16:00 -1°C° 0.1 mm 2 mps 662 mmHg 81%
    17:00 -1°C° 0.1 mm 2 mps 663 mmHg 78%
    18:00 -1°C° 0.1 mm 2 mps 663 mmHg 75%
    19:00 -2°C° 0.1 mm 2 mps 663 mmHg 71%
    20:00 -2°C° 0 mm 2 mps 664 mmHg 70%
    21:00 -2°C° 0 mm 2 mps 664 mmHg 69%
    22:00 -2°C° 0 mm 2 mps 664 mmHg 68%
    23:00 -2°C° 0 mm 2 mps 664 mmHg 67%

    Tomorrow, 16 December, Saturday

    Time Temperature Precipitation Wind Pressure Humidity
    00:00 -2°C° 0 mm 2 mps 665 mmHg 67%
    01:00 -2°C° 0 mm 2 mps 665 mmHg 66%
    02:00 -2°C° 0 mm 2 mps 665 mmHg 66%
    03:00 -2°C° 0 mm 2 mps 665 mmHg 66%
    04:00 -2°C° 0 mm 2 mps 665 mmHg 66%
    05:00 -4°C° 0 mm 3 mps 666 mmHg 65%
    06:00 -4°C° 0 mm 3 mps 666 mmHg 64%
    07:00 -4°C° 0 mm 3 mps 666 mmHg 63%
    08:00 -2°C° 0 mm 3 mps 666 mmHg 60%
    09:00 -2°C° 0 mm 3 mps 666 mmHg 58%
    10:00 -1°C° 0 mm 3 mps 667 mmHg 55%
    11:00 -1°C° 0 mm 3 mps 666 mmHg 53%
    12:00 -1°C° 0 mm 2 mps 666 mmHg 52%
    13:00 +1°C° 0 mm 2 mps 666 mmHg 50%
    14:00 -1°C° 0 mm 2 mps 666 mmHg 53%
    15:00 -2°C° 0 mm 2 mps 666 mmHg 56%
    16:00 -4°C° 0 mm 2 mps 666 mmHg 59%
    17:00 -4°C° 0 mm 2 mps 666 mmHg 59%
    18:00 -4°C° 0 mm 2 mps 666 mmHg 60%
    19:00 -6°C° 0 mm 3 mps 666 mmHg 60%
    20:00 -6°C° 0 mm 3 mps 665 mmHg 60%
    21:00 -6°C° 0 mm 3 mps 665 mmHg 59%
    22:00 -6°C° 0 mm 3 mps 665 mmHg 59%
    23:00 -6°C° 0 mm 3 mps 664 mmHg 58%

    Day after tomorrow, 17 December, Sunday

    Time Temperature Precipitation Wind Pressure Humidity
    00:00 -6°C° 0 mm 3 mps 663 mmHg 58%
    01:00 -6°C° 0 mm 3 mps 662 mmHg 58%
    02:00 -6°C° 0 mm 3 mps 662 mmHg 56%
    03:00 -5°C° 0 mm 3 mps 662 mmHg 54%
    04:00 -4°C° 0 mm 3 mps 661 mmHg 52%
    05:00 -4°C° 0 mm 3 mps 661 mmHg 51%
    06:00 -2°C° 0 mm 3 mps 661 mmHg 50%
    07:00 -3°C° 0 mm 4 mps 661 mmHg 49%
    08:00 -2°C° 0 mm 4 mps 661 mmHg 49%
    09:00 -2°C° 0 mm 4 mps 661 mmHg 49%
    10:00 -1°C° 0 mm 4 mps 661 mmHg 50%
    11:00 0°C° 0.1 mm 3 mps 660 mmHg 51%
    12:00 0°C° 0.1 mm 3 mps 660 mmHg 52%
    13:00 +1°C° 0.1 mm 3 mps 659 mmHg 53%
    14:00 0°C° 0 mm 3 mps 659 mmHg 56%
    15:00 -1°C° 0 mm 2 mps 659 mmHg 58%
    16:00 -1°C° 0 mm 2 mps 658 mmHg 60%
    17:00 -2°C° 0.1 mm 2 mps 658 mmHg 65%
    18:00 -2°C° 0.1 mm 3 mps 658 mmHg 69%
    19:00 -4°C° 0.1 mm 3 mps 658 mmHg 74%
    20:00 -4°C° 0.6 mm 3 mps 658 mmHg 79%
    21:00 -3°C° 0.6 mm 2 mps 659 mmHg 85%
    22:00 -4°C° 0.6 mm 2 mps 659 mmHg 91%
    23:00 -4°C° 0.4 mm 2 mps 659 mmHg 89%

    18 December, Monday

    Time Temperature Precipitation Wind Pressure Humidity
    00:00 -4°C° 0.4 mm 2 mps 660 mmHg 88%
    01:00 -4°C° 0.4 mm 2 mps 660 mmHg 86%
    02:00 -4°C° 0.1 mm 2 mps 660 mmHg 85%
    03:00 -5°C° 0.1 mm 3 mps 661 mmHg 84%
    04:00 -5°C° 0.1 mm 4 mps 661 mmHg 83%
    05:00 -5°C° 0 mm 4 mps 662 mmHg 76%
    06:00 -7°C° 0 mm 4 mps 662 mmHg 68%
    07:00 -7°C° 0 mm 5 mps 663 mmHg 61%
    08:00 -6°C° 0 mm 5 mps 663 mmHg 58%
    09:00 -5°C° 0 mm 5 mps 664 mmHg 55%
    10:00 -5°C° 0 mm 5 mps 664 mmHg 51%
    11:00 -5°C° 0 mm 5 mps 664 mmHg 51%
    12:00 -3°C° 0 mm 4 mps 664 mmHg 51%
    13:00 -3°C° 0 mm 4 mps 665 mmHg 51%
    14:00 -4°C° 0 mm 4 mps 665 mmHg 54%
    15:00 -5°C° 0 mm 3 mps 665 mmHg 57%
    16:00 -6°C° 0 mm 3 mps 666 mmHg 60%
    17:00 -7°C° 0 mm 3 mps 666 mmHg 61%
    18:00 -7°C° 0 mm 3 mps 667 mmHg 63%
    19:00 -9°C° 0 mm 4 mps 667 mmHg 64%
    20:00 -8°C° 0 mm 3 mps 668 mmHg 65%
    21:00 -8°C° 0 mm 3 mps 668 mmHg 66%
    22:00 -8°C° 0 mm 3 mps 668 mmHg 66%
    23:00 -8°C° 0 mm 3 mps 668 mmHg 66%

    19 December, Tuesday

    Time Temperature Precipitation Wind Pressure Humidity
    00:00 -7°C° 0 mm 2 mps 668 mmHg 66%
    01:00 -7°C° 0 mm 2 mps 668 mmHg 66%
    02:00 -7°C° 0 mm 2 mps 668 mmHg 66%
    03:00 -6°C° 0 mm 1 mps 668 mmHg 66%
    04:00 -6°C° 0 mm 1 mps 667 mmHg 65%
    05:00 -6°C° 0 mm 1 mps 667 mmHg 66%
    06:00 -6°C° 0 mm 1 mps 667 mmHg 67%
    07:00 -6°C° 0 mm 1 mps 666 mmHg 68%
    08:00 -7°C° 0 mm 2 mps 666 mmHg 70%
    09:00 -6°C° 0 mm 2 mps 665 mmHg 71%
    10:00 -7°C° 0 mm 3 mps 665 mmHg 73%
    11:00 -7°C° 0.1 mm 3 mps 664 mmHg 78%
    12:00 -7°C° 0.1 mm 3 mps 663 mmHg 82%
    13:00 -8°C° 0.1 mm 4 mps 662 mmHg 87%
    14:00 -7°C° 0.1 mm 3 mps 661 mmHg 90%
    15:00 -7°C° 0.1 mm 3 mps 660 mmHg 92%
    16:00 -7°C° 0.1 mm 3 mps 659 mmHg 95%
    17:00 -7°C° 0.1 mm 3 mps 659 mmHg 95%
    18:00 -7°C° 0.1 mm 3 mps 658 mmHg 95%
    19:00 -7°C° 0.1 mm 3 mps 657 mmHg 96%
    20:00 -7°C° 0.2 mm 3 mps 657 mmHg 96%
    21:00 -7°C° 0.2 mm 3 mps 656 mmHg 96%
    22:00 -7°C° 0.2 mm 3 mps 656 mmHg 96%
    23:00 -9°C° 0.7 mm 4 mps 656 mmHg 96%

    20 December, Wednesday

    Time Temperature Precipitation Wind Pressure Humidity
    00:00 -10°C° 0.7 mm 5 mps 656 mmHg 96%
    01:00 -11°C° 0.7 mm 5 mps 656 mmHg 96%
    02:00 -11°C° 1 mm 6 mps 657 mmHg 95%
    03:00 -12°C° 1 mm 6 mps 658 mmHg 94%
    04:00 -14°C° 1 mm 6 mps 658 mmHg 93%
    05:00 -14°C° 0.5 mm 6 mps 660 mmHg 93%
    06:00 -15°C° 0.5 mm 6 mps 661 mmHg 92%
    07:00 -15°C° 0.5 mm 6 mps 663 mmHg 92%
    08:00 -14°C° 0.2 mm 5 mps 664 mmHg 91%
    09:00 -14°C° 0.2 mm 5 mps 665 mmHg 90%
    10:00 -14°C° 0.2 mm 4 mps 666 mmHg 89%
    11:00 -12°C° 0 mm 3 mps 666 mmHg 88%
    12:00 -10°C° 0 mm 2 mps 667 mmHg 87%
    13:00 -10°C° 0 mm 2 mps 667 mmHg 86%
    14:00 -10°C° 0 mm 1 mps 667 mmHg 88%
    15:00 -11°C° 0 mm 1 mps 668 mmHg 89%
    16:00 -13°C° 0 mm 1 mps 668 mmHg 91%
    17:00 -13°C° 0 mm 1 mps 668 mmHg 89%
    18:00 -15°C° 0 mm 2 mps 669 mmHg 86%
    19:00 -15°C° 0 mm 2 mps 669 mmHg 84%
    20:00 -14°C° 0 mm 2 mps 670 mmHg 81%
    21:00 -15°C° 0 mm 3 mps 670 mmHg 78%
    22:00 -15°C° 0 mm 3 mps 670 mmHg 75%
    23:00 -14°C° 0 mm 3 mps 670 mmHg 73%
    Show more